Retour au catalogue

ONEWEB-0695

ActifCommunicationsPO
NORAD 61602·PAYLOAD·🇬🇧 United Kingdom

Lancé Oct 20, 2024 depuis Vandenberg Space Force Base

Loading…

Prochains Passages (prochaines 24 heures)

TLE

FraisSource: CelesTrak SupGP

Époque: Sep 14, 2026, 22:32 UTC

1 61602C 24188J   26257.93906667 -.00001734  00000+0 -48989-2 0  2579
2 61602  87.8958   3.2296 0001284 107.4184 354.5345 13.11414618    14

Suivez ONEWEB-0695 en temps réel avec AllMySat

Download on the App Store